Regional Weather Roundup
Issued by NWS

Home | Current Version | Previous Version | Text Only | Print | Product List | Glossary On
Versions: 1 2 3 4 5 6 7 8 9 10 11 12 13 14 15 16 17 18 19 20 21 22 23 24 25 26 27 28 29 30 31 32 33 34 35 36 37 38 39 40 41 42 43 44 45 46 47 48 49 50
886
ASUS43 KLSX 260557
RWRMO

WEATHER SUMMARY FOR MISSOURI
NATIONAL WEATHER SERVICE SPRINGFIELD MO
100 AM CDT THU MAY 26 2016

NOTE: "FAIR" INDICATES FEW OR NO CLOUDS BELOW 12,000 FEET WITH NO
       SIGNIFICANT WEATHER AND/OR OBSTRUCTIONS TO VISIBILITY.
       CURRENT SKY AND/OR WEATHER CONDITIONS ARE NOT AVAILABLE FOR
       CHILLICOTHE AND FARMINGTON.

MOZ001>031-035>038-043-044-053-054-260700-
...NORTHERN AND WESTERN MISSOURI...

CITY           SKY/WX    TMP DP  RH WIND       PRES   REMARKS
KANSAS CTY INT LGT RAIN  76  70  82 S24       29.84F
6HR MIN TEMP:  73; 6HR MAX TEMP:  80; 6HR PCP: TRACE;

LEE`S SUMMIT   CLOUDY    75  69  81 S16       29.88F
6HR MIN TEMP:  75; 6HR MAX TEMP:  81;

ST JOSEPH      TSTM      70  62  76 E13       29.85F
6HR MIN TEMP:  68; 6HR MAX TEMP:  81; 6HR PCP:  0.04;

CHILLICOTHE      N/A     76  67  73 S6        29.88S
6HR MIN TEMP:  75; 6HR MAX TEMP:  82;


$$
MOZ066>068-077>081-088>096-101>105-260700-
...SOUTHWEST MISSOURI...

CITY           SKY/WX    TMP DP  RH WIND       PRES   REMARKS
SPRINGFIELD    CLOUDY    72  68  87 SE14      29.96F
6HR MIN TEMP:  71; 6HR MAX TEMP:  78;

JOPLIN         CLOUDY    76  71  85 S12       29.92F
6HR MIN TEMP:  75; 6HR MAX TEMP:  79;


$$
MOZ032>034-039>042-045>050-055>058-069>072-260700-
...CENTRAL MISSOURI...

CITY           SKY/WX    TMP DP  RH WIND       PRES   REMARKS
COLUMBIA       NOT AVBL
JEFFERSON CITY PTCLDY    73  66  78 SE6       29.93S
6HR MIN TEMP:  71; 6HR MAX TEMP:  82;

ROLLA          CLOUDY    72  68  87 S13       29.96F
6HR MIN TEMP:  70; 6HR MAX TEMP:  78;

SEDALIA        CLOUDY    73  66  78 S17       29.92F
6HR MIN TEMP:  73; 6HR MAX TEMP:  81;

WARRENSBURG    CLOUDY    72  66  83 S10       29.89F

$$
MOZ051-052-059>065-260700-
...EAST CENTRAL MISSOURI...

CITY           SKY/WX    TMP DP  RH WIND       PRES   REMARKS
ST LOUIS INTL  CLEAR     73  65  75 S9        29.97S
6HR MIN TEMP:  73; 6HR MAX TEMP:  82;


$$
MOZ072>076-082>087-097>100-106>115-260700-
...SOUTH CENTRAL AND SOUTHEAST MISSOURI...

CITY           SKY/WX    TMP DP  RH WIND       PRES   REMARKS
CAPE GIRARDEAU MOCLDY    67  64  90 CALM      30.03F
6HR MIN TEMP:  66; 6HR MAX TEMP:  74;

FARMINGTON     PTCLDY    66  64  94 S8        30.02F
POPLAR BLUFF   MOCLDY    67  65  93 CALM      30.02S
6HR MIN TEMP:  66; 6HR MAX TEMP:  75;

WEST PLAINS    PTCLDY    69  66  90 SE3       30.04S
6HR MIN TEMP:  69; 6HR MAX TEMP:  76;


$$



USA.gov is the U.S. government's official web portal to all federal, state and local government web resources and services.